Regional Weather Roundup
Issued by NWS Burlington, VT

Home | Current Version | Previous Version | Text Only | Print | Product List | Glossary On
Versions: 1 2 3 4 5 6 7 8 9 10 11 12 13 14 15 16 17 18 19 20 21 22 23 24 25 26 27 28 29 30 31 32 33 34 35 36 37 38 39 40 41 42 43 44 45 46 47 48 49 50
000
ASUS41 KBTV 241330
RWRBTV
VERMONT REGIONAL WEATHER ROUNDUP
NATIONAL WEATHER SERVICE BURLINGTON VT
900 AM EDT THU JUL 24 2014

NOTE: "FAIR" INDICATES FEW OR NO CLOUDS BELOW 12,000 FEET WITH NO
SIGNIFICANT WEATHER AND/OR OBSTRUCTIONS TO VISIBILITY.

* THESE REPORTS ARE NOT UNDER NWS QUALITY CONTROL AND/OR DO NOT
  REPORT WEATHER SUCH AS PRECIPITATION AND FOG.

VTZ001>019-241400-
_____VERMONT_____


CITY           SKY/WX    TMP DP  RH WIND       PRES   REMARKS
BURLINGTON     MOSUNNY   65  50  58 N9        29.95R
MONTPELIER     PTSUNNY   60  55  83 NW8       29.96S
ST. JOHNSBURY*   N/A     57  54  89 MISG      29.89R
LYNDONVILLE*   FAIR      63  54  74 W5        29.93S
MIDDLEBURY*    FAIR      64  53  68 N6        29.94S
RUTLAND*       MOSUNNY   61  52  72 N7        29.93S
SPRINGFIELD    MOSUNNY   69  57  65 VRB5      29.90R
HIGHGATE*      FAIR      63  49  61 N6        29.95S
NEWPORT*       FAIR     N/A N/A N/A N7        29.94S
BENNINGTON     PTSUNNY   66  57  72 N9        29.91S
MT. MANSFIELD*   N/A     54 N/A N/A N5          N/A

_____LAKE CHAMPLAIN_____


CITY           SKY/WX    TMP DP  RH WIND       PRES   REMARKS
BURTON ISLAND*   N/A     64  52  63 NW1         N/A
COLCHESTER RF*   N/A     63  50  63 N16         N/A
DIAMOND ISL*     N/A     63  50  63 N13         N/A

$$

NYZ007-026>031-035-052-083-241400-
_____NORTHERN NEW YORK_____


CITY           SKY/WX    TMP DP  RH WIND       PRES   REMARKS
PLATTSBURGH    MOSUNNY   64  49  57 N13       29.95S
SARANAC LAKE   MOSUNNY   57  50  77 CALM      29.96F
MASSENA        SUNNY     61  49  64 N9        30.00R
OGDENSBURG*    SUNNY     63  48  59 N8        30.01R
POTSDAM*       SUNNY     61  52  72 N8        30.00S
WATERTOWN      MOSUNNY   63  47  55 N9        30.01S
FT DRUM        MOSUNNY   60  49  68 NE8       30.01R
ALBANY         PTSUNNY   68  58  70 N10       29.92R
GLENS FALLS    MOSUNNY   66  52  60 N9        29.93R

$$
NHZ002-005-011-241400-
_____NEW HAMPSHIRE_____


CITY           SKY/WX    TMP DP  RH WIND       PRES   REMARKS
LEBANON        PTSUNNY   68  59  73 NW8       29.89R
KEENE          MOSUNNY   70  55  60 N14       29.87S
MT WASHINGTON  FOG       43  43 100 N24         N/A  VSB 1/8
PLYMOUTH       FAIR      67  58  73 W10G17    29.86S
WHITEFIELD     CLOUDY    65  57  75 N6        29.90S

$$

_____REGIONAL QUEBEC LOCATIONS_____


CITY           SKY/WX    TMP DP  RH WIND       PRES   REMARKS
MONTREAL       MOSUNNY   63  46  55 NW6       29.97S
QUEBEC CITY    MOSUNNY   61  45  55 VRB6      29.93S
SHERBROOKE     SUNNY     63  52  67 NE3       29.92S

_____REGIONAL ONTARIO LOCATIONS_____


CITY           SKY/WX    TMP DP  RH WIND       PRES   REMARKS
OTTAWA         MOSUNNY   63  46  55 N10       30.02R

______KEY______
VSB  - VISIBILITY IN MILES
WCI  - WIND CHILL INDEX
HX   - HEAT INDEX
$$
NNNN


USA.gov is the U.S. government's official web portal to all federal, state and local government web resources and services.